sat.trackr.live / text

‹ back to catalog

CYGFM05

NORAD 41884 · 2016-078A

PAYLOAD INACTIVE UNKNOWN

§ Identity

Operator
Country
US
Launch date
2016-12-15
Launch site
ERAS
Launch vehicle
Mass (kg)
RCS (m²)
0.19

Purposes: earth_obs

External: N2YO · Heavens-Above · Gunter

§ Orbital elements

Epoch: 2026-05-25T03:33:41.230368Z

Period
92.57 min
Inclination
34.9579°
Eccentricity
0.0009031
Mean motion
15.55521265 rev/d
Perigee alt
394.5 km
Apogee alt
406.8 km
Semi-major
6,778.8 km
B*
3.2889e-4
RAAN
53.0223°
Arg perigee
291.5383°
Mean anomaly
68.4378°
Rev number
52,516

§ Raw data

CYGFM051 41884U 16078A   26145.14839387  .00023283  00000+0  32889-3 0  99982 41884  34.9579  53.0223 0009031 291.5383  68.4378 15.55521265525165

JSON: /api/v1/satellites/41884 · /tle

For live sub-satellite position, see the globe view (requires WebGL).

§ Visibility from observer

Set your observer location to see the next 7 days of passes ≥ 10°. The values pass through the URL so the page stays shareable.

No JS? Fill the form by hand. The geolocation button needs JavaScript.